Time,TemperatureF,DewpointF,PressureIn,WindDirection,WindDirectionDegrees,WindSpeedMPH,WindSpeedGustMPH,Humidity,HourlyPrecipIn,Conditions,Clouds,dailyrainin,SoftwareType,DateUTC
2013-11-24 00:00:00,17.3,9.8,30.68,NW,323,6.0,6.0,72,0.00,,,0.00,Wunderground v.1.15,2013-11-24 05:00:00,
2013-11-24 00:05:00,17.2,9.7,30.68,NW,306,6.0,17.0,72,0.00,,,0.00,Wunderground v.1.15,2013-11-24 05:05:00,
2013-11-24 00:10:00,17.3,9.5,30.68,West,277,6.0,17.0,71,0.00,,,0.00,Wunderground v.1.15,2013-11-24 05:10:00,
2013-11-24 00:15:00,17.2,9.7,30.69,WNW,292,6.0,17.0,72,0.00,,,0.00,Wunderground v.1.15,2013-11-24 05:15:00,
2013-11-24 00:20:00,17.2,9.4,30.68,NW,324,6.0,17.0,71,0.00,,,0.00,Wunderground v.1.15,2013-11-24 05:20:00,
2013-11-24 00:25:00,17.1,9.6,30.68,WNW,292,5.0,17.0,72,0.00,,,0.00,Wunderground v.1.15,2013-11-24 05:25:00,
2013-11-24 00:35:00,17.1,9.0,30.67,NW,304,5.0,17.0,70,0.00,,,0.00,Wunderground v.1.15,2013-11-24 05:35:00,
2013-11-24 00:40:00,17.1,9.0,30.67,NW,315,6.0,17.0,70,0.00,,,0.00,Wunderground v.1.15,2013-11-24 05:40:00,
2013-11-24 00:45:00,17.0,8.9,30.67,WNW,291,6.0,17.0,70,0.00,,,0.00,Wunderground v.1.15,2013-11-24 05:45:00,
2013-11-24 00:50:00,16.9,8.8,30.68,WNW,301,6.0,17.0,70,0.00,,,0.00,Wunderground v.1.15,2013-11-24 05:50:00,
2013-11-24 00:55:00,16.9,8.5,30.67,NW,325,7.0,17.0,69,0.00,,,0.00,Wunderground v.1.15,2013-11-24 05:55:00,
2013-11-24 01:00:00,16.9,8.5,30.67,NW,313,7.0,17.0,69,0.00,,,0.00,Wunderground v.1.15,2013-11-24 06:00:00,
2013-11-24 01:05:00,16.8,8.4,30.67,NNW,332,6.0,17.0,69,0.00,,,0.00,Wunderground v.1.15,2013-11-24 06:05:00,
2013-11-24 01:10:00,16.8,8.4,30.67,NW,319,7.0,7.0,69,0.00,,,0.00,Wunderground v.1.15,2013-11-24 06:10:00,
2013-11-24 01:15:00,16.8,8.4,30.67,WNW,302,7.0,17.0,69,0.00,,,0.00,Wunderground v.1.15,2013-11-24 06:15:00,
2013-11-24 01:20:00,16.7,8.3,30.67,WNW,298,7.0,7.0,69,0.00,,,0.00,Wunderground v.1.15,2013-11-24 06:20:00,
2013-11-24 01:25:00,16.7,8.3,30.68,WNW,303,7.0,8.0,69,0.00,,,0.00,Wunderground v.1.15,2013-11-24 06:25:00,
2013-11-24 01:30:00,16.7,8.3,30.68,NW,305,7.0,7.0,69,0.00,,,0.00,Wunderground v.1.15,2013-11-24 06:30:00,
2013-11-24 01:35:00,16.6,8.2,30.68,NW,317,7.0,10.0,69,0.00,,,0.00,Wunderground v.1.15,2013-11-24 06:35:00,
2013-11-24 01:45:00,16.5,8.4,30.67,WNW,300,6.0,8.0,70,0.00,,,0.00,Wunderground v.1.15,2013-11-24 06:45:00,
2013-11-24 01:55:00,16.4,8.3,30.67,West,279,6.0,17.0,70,0.00,,,0.00,Wunderground v.1.15,2013-11-24 06:55:00,
2013-11-24 02:00:00,16.3,8.2,30.67,NW,315,6.0,17.0,70,0.00,,,0.00,Wunderground v.1.15,2013-11-24 07:00:00,
2013-11-24 02:05:00,16.3,8.2,30.67,WNW,302,7.0,17.0,70,0.00,,,0.00,Wunderground v.1.15,2013-11-24 07:05:00,
2013-11-24 02:10:00,16.2,8.1,30.67,NW,306,6.0,6.0,70,0.00,,,0.00,Wunderground v.1.15,2013-11-24 07:10:00,
2013-11-24 02:15:00,16.1,8.3,30.67,NW,321,5.0,17.0,71,0.00,,,0.00,Wunderground v.1.15,2013-11-24 07:15:00,
2013-11-24 02:25:00,16.0,8.6,30.67,NW,318,5.0,17.0,72,0.00,,,0.00,Wunderground v.1.15,2013-11-24 07:25:00,
2013-11-24 02:30:00,15.9,8.5,30.67,NW,308,6.0,17.0,72,0.00,,,0.00,Wunderground v.1.15,2013-11-24 07:30:00,
2013-11-24 02:40:00,15.8,8.4,30.67,NW,306,5.0,17.0,72,0.00,,,0.00,Wunderground v.1.15,2013-11-24 07:40:00,
2013-11-24 02:45:00,15.8,8.4,30.67,NNW,329,6.0,17.0,72,0.00,,,0.00,Wunderground v.1.15,2013-11-24 07:45:00,
2013-11-24 02:50:00,15.8,8.4,30.68,NNW,347,6.0,17.0,72,0.00,,,0.00,Wunderground v.1.15,2013-11-24 07:50:00,
2013-11-24 03:00:00,15.7,8.3,30.68,NNW,327,5.0,17.0,72,0.00,,,0.00,Wunderground v.1.15,2013-11-24 08:00:00,
2013-11-24 03:05:00,15.5,8.1,30.68,NW,306,5.0,17.0,72,0.00,,,0.00,Wunderground v.1.15,2013-11-24 08:05:00,
2013-11-24 03:10:00,15.5,8.1,30.68,NW,318,6.0,17.0,72,0.00,,,0.00,Wunderground v.1.15,2013-11-24 08:10:00,
2013-11-24 03:15:00,15.4,8.0,30.68,NW,324,5.0,17.0,72,0.00,,,0.00,Wunderground v.1.15,2013-11-24 08:15:00,
2013-11-24 03:20:00,15.4,8.0,30.68,WNW,282,4.0,4.0,72,0.00,,,0.00,Wunderground v.1.15,2013-11-24 08:20:00,
2013-11-24 03:25:00,15.3,8.2,30.68,NW,315,4.0,17.0,73,0.00,,,0.00,Wunderground v.1.15,2013-11-24 08:25:00,
2013-11-24 03:30:00,15.2,8.1,30.68,NW,324,4.0,17.0,73,0.00,,,0.00,Wunderground v.1.15,2013-11-24 08:30:00,
2013-11-24 03:35:00,15.2,7.8,30.68,NW,305,4.0,17.0,72,0.00,,,0.00,Wunderground v.1.15,2013-11-24 08:35:00,
2013-11-24 03:40:00,15.2,7.8,30.68,NW,321,4.0,4.0,72,0.00,,,0.00,Wunderground v.1.15,2013-11-24 08:40:00,
2013-11-24 03:45:00,15.2,7.8,30.68,NNW,333,5.0,5.0,72,0.00,,,0.00,Wunderground v.1.15,2013-11-24 08:45:00,
2013-11-24 03:55:00,15.0,7.3,30.67,NW,316,3.0,17.0,71,0.00,,,0.00,Wunderground v.1.15,2013-11-24 08:55:00,
2013-11-24 04:05:00,14.8,7.1,30.68,NW,304,3.0,17.0,71,0.00,,,0.00,Wunderground v.1.15,2013-11-24 09:05:00,
2013-11-24 04:10:00,14.7,7.0,30.68,NNW,332,2.0,2.0,71,0.00,,,0.00,Wunderground v.1.15,2013-11-24 09:10:00,
2013-11-24 04:15:00,14.6,7.2,30.68,NW,325,2.0,17.0,72,0.00,,,0.00,Wunderground v.1.15,2013-11-24 09:15:00,
2013-11-24 04:20:00,14.6,7.2,30.68,NNW,334,3.0,17.0,72,0.00,,,0.00,Wunderground v.1.15,2013-11-24 09:20:00,
2013-11-24 04:25:00,14.6,7.5,30.68,NW,304,3.0,17.0,73,0.00,,,0.00,Wunderground v.1.15,2013-11-24 09:25:00,
2013-11-24 04:30:00,14.5,7.4,30.68,West,278,3.0,17.0,73,0.00,,,0.00,Wunderground v.1.15,2013-11-24 09:30:00,
2013-11-24 04:40:00,14.2,7.4,30.68,NW,313,2.0,17.0,74,0.00,,,0.00,Wunderground v.1.15,2013-11-24 09:40:00,
2013-11-24 04:45:00,14.2,7.1,30.68,WNW,296,2.0,17.0,73,0.00,,,0.00,Wunderground v.1.15,2013-11-24 09:45:00,
2013-11-24 04:50:00,14.1,7.3,30.68,WNW,296,2.0,17.0,74,0.00,,,0.00,Wunderground v.1.15,2013-11-24 09:50:00,
2013-11-24 05:00:00,14.0,7.2,30.68,WNW,284,2.0,2.0,74,0.00,,,0.00,Wunderground v.1.15,2013-11-24 10:00:00,
2013-11-24 05:05:00,13.9,7.1,30.68,WNW,286,2.0,17.0,74,0.00,,,0.00,Wunderground v.1.15,2013-11-24 10:05:00,
2013-11-24 05:15:00,13.8,6.7,30.68,WNW,286,2.0,17.0,73,0.00,,,0.00,Wunderground v.1.15,2013-11-24 10:15:00,
2013-11-24 05:20:00,13.7,6.9,30.68,WNW,286,2.0,2.0,74,0.00,,,0.00,Wunderground v.1.15,2013-11-24 10:20:00,
2013-11-24 05:25:00,13.6,6.8,30.68,WNW,302,2.0,17.0,74,0.00,,,0.00,Wunderground v.1.15,2013-11-24 10:25:00,
2013-11-24 05:30:00,13.6,6.8,30.69,NW,309,2.0,17.0,74,0.00,,,0.00,Wunderground v.1.15,2013-11-24 10:30:00,
2013-11-24 05:35:00,13.6,6.8,30.68,NW,313,2.0,17.0,74,0.00,,,0.00,Wunderground v.1.15,2013-11-24 10:35:00,
2013-11-24 05:45:00,13.7,6.6,30.68,WNW,300,3.0,17.0,73,0.00,,,0.00,Wunderground v.1.15,2013-11-24 10:45:00,
2013-11-24 05:50:00,13.7,6.6,30.68,WNW,298,3.0,3.0,73,0.00,,,0.00,Wunderground v.1.15,2013-11-24 10:50:00,
2013-11-24 05:55:00,13.7,6.6,30.68,NW,311,3.0,17.0,73,0.00,,,0.00,Wunderground v.1.15,2013-11-24 10:55:00,
2013-11-24 06:00:00,13.7,6.6,30.68,WNW,290,3.0,3.0,73,0.00,,,0.00,Wunderground v.1.15,2013-11-24 11:00:00,
2013-11-24 06:10:00,13.6,6.8,30.67,WNW,288,3.0,3.0,74,0.00,,,0.00,Wunderground v.1.15,2013-11-24 11:10:00,
2013-11-24 06:15:00,13.5,6.8,30.67,WNW,290,2.0,5.0,74,0.00,,,0.00,Wunderground v.1.15,2013-11-24 11:15:00,
2013-11-24 06:25:00,13.4,6.7,30.68,WNW,296,2.0,5.0,74,0.00,,,0.00,Wunderground v.1.15,2013-11-24 11:25:00,
2013-11-24 06:30:00,13.4,6.7,30.68,NW,307,3.0,5.0,74,0.00,,,0.00,Wunderground v.1.15,2013-11-24 11:30:00,
2013-11-24 06:35:00,13.4,6.7,30.69,NW,314,3.0,5.0,74,0.00,,,0.00,Wunderground v.1.15,2013-11-24 11:35:00,
2013-11-24 06:40:00,13.4,6.4,30.68,NW,304,3.0,5.0,73,0.00,,,0.00,Wunderground v.1.15,2013-11-24 11:40:00,
2013-11-24 06:45:00,13.4,6.4,30.69,NW,315,3.0,5.0,73,0.00,,,0.00,Wunderground v.1.15,2013-11-24 11:45:00,
2013-11-24 06:55:00,13.3,6.6,30.69,NW,310,3.0,5.0,74,0.00,,,0.00,Wunderground v.1.15,2013-11-24 11:55:00,
2013-11-24 07:00:00,13.3,6.6,30.69,NW,304,3.0,3.0,74,0.00,,,0.00,Wunderground v.1.15,2013-11-24 12:00:00,
2013-11-24 07:05:00,13.2,6.5,30.70,WNW,298,3.0,5.0,74,0.00,,,0.00,Wunderground v.1.15,2013-11-24 12:05:00,
2013-11-24 07:10:00,13.2,6.8,30.70,NW,309,3.0,5.0,75,0.00,,,0.00,Wunderground v.1.15,2013-11-24 12:10:00,
2013-11-24 07:20:00,13.1,7.0,30.71,NW,307,3.0,3.0,76,0.00,,,0.00,Wunderground v.1.15,2013-11-24 12:20:00,
2013-11-24 07:30:00,12.9,6.8,30.71,NW,304,3.0,5.0,76,0.00,,,0.00,Wunderground v.1.15,2013-11-24 12:30:00,
2013-11-24 07:35:00,12.8,6.7,30.71,WNW,302,3.0,5.0,76,0.00,,,0.00,Wunderground v.1.15,2013-11-24 12:35:00,
2013-11-24 07:40:00,12.8,6.9,30.71,NW,307,3.0,3.0,77,0.00,,,0.00,Wunderground v.1.15,2013-11-24 12:40:00,
2013-11-24 07:45:00,12.7,6.9,30.72,NW,306,3.0,4.0,77,0.00,,,0.00,Wunderground v.1.15,2013-11-24 12:45:00,
2013-11-24 07:50:00,12.6,6.8,30.72,NW,306,3.0,6.0,77,0.00,,,0.00,Wunderground v.1.15,2013-11-24 12:50:00,
2013-11-24 08:00:00,12.7,7.1,30.72,WNW,296,4.0,4.0,78,0.00,,,0.00,Wunderground v.1.15,2013-11-24 13:00:00,
2013-11-24 08:05:00,12.7,7.1,30.73,NW,307,4.0,5.0,78,0.00,,,0.00,Wunderground v.1.15,2013-11-24 13:05:00,
2013-11-24 08:10:00,12.8,7.2,30.73,NW,313,4.0,5.0,78,0.00,,,0.00,Wunderground v.1.15,2013-11-24 13:10:00,
2013-11-24 08:15:00,12.9,7.3,30.73,WNW,303,4.0,5.0,78,0.00,,,0.00,Wunderground v.1.15,2013-11-24 13:15:00,
2013-11-24 08:25:00,13.1,7.5,30.73,NW,309,2.0,5.0,78,0.00,,,0.00,Wunderground v.1.15,2013-11-24 13:25:00,
2013-11-24 08:30:00,13.3,7.7,30.73,WNW,294,2.0,5.0,78,0.00,,,0.00,Wunderground v.1.15,2013-11-24 13:30:00,
2013-11-24 08:35:00,13.5,7.6,30.74,WNW,292,3.0,5.0,77,0.00,,,0.00,Wunderground v.1.15,2013-11-24 13:35:00,
2013-11-24 08:40:00,13.7,8.1,30.74,West,279,3.0,6.0,78,0.00,,,0.00,Wunderground v.1.15,2013-11-24 13:40:00,
2013-11-24 08:45:00,14.0,8.1,30.74,NW,311,3.0,6.0,77,0.00,,,0.00,Wunderground v.1.15,2013-11-24 13:45:00,
2013-11-24 08:50:00,14.2,8.3,30.74,NW,319,3.0,6.0,77,0.00,,,0.00,Wunderground v.1.15,2013-11-24 13:50:00,
2013-11-24 08:55:00,14.4,8.2,30.74,West,273,4.0,6.0,76,0.00,,,0.00,Wunderground v.1.15,2013-11-24 13:55:00,
2013-11-24 09:00:00,14.6,8.7,30.75,NW,309,3.0,3.0,77,0.00,,,0.00,Wunderground v.1.15,2013-11-24 14:00:00,
2013-11-24 09:10:00,15.0,8.8,30.75,NW,309,3.0,3.0,76,0.00,,,0.00,Wunderground v.1.15,2013-11-24 14:10:00,
2013-11-24 09:20:00,15.5,9.0,30.75,WNW,292,4.0,4.0,75,0.00,,,0.00,Wunderground v.1.15,2013-11-24 14:20:00,
2013-11-24 09:25:00,15.8,9.3,30.75,West,277,3.0,8.0,75,0.00,,,0.00,Wunderground v.1.15,2013-11-24 14:25:00,
2013-11-24 09:30:00,16.1,9.3,30.75,NW,307,3.0,8.0,74,0.00,,,0.00,Wunderground v.1.15,2013-11-24 14:30:00,
2013-11-24 09:35:00,16.4,9.6,30.75,NW,308,4.0,8.0,74,0.00,,,0.00,Wunderground v.1.15,2013-11-24 14:35:00,
2013-11-24 09:40:00,16.5,9.7,30.76,WNW,302,3.0,8.0,74,0.00,,,0.00,Wunderground v.1.15,2013-11-24 14:40:00,
2013-11-24 09:45:00,16.9,10.0,30.76,WNW,295,4.0,8.0,74,0.00,,,0.00,Wunderground v.1.15,2013-11-24 14:45:00,
2013-11-24 09:50:00,17.1,10.2,30.76,West,263,4.0,8.0,74,0.00,,,0.00,Wunderground v.1.15,2013-11-24 14:50:00,
2013-11-24 09:55:00,17.3,10.4,30.75,NW,304,4.0,8.0,74,0.00,,,0.00,Wunderground v.1.15,2013-11-24 14:55:00,
2013-11-24 10:05:00,17.6,10.7,30.75,NW,309,4.0,8.0,74,0.00,,,0.00,Wunderground v.1.15,2013-11-24 15:05:00,
2013-11-24 10:10:00,17.9,11.0,30.75,WSW,255,4.0,4.0,74,0.00,,,0.00,Wunderground v.1.15,2013-11-24 15:10:00,
2013-11-24 10:20:00,18.4,11.2,30.75,WNW,289,3.0,8.0,73,0.00,,,0.00,Wunderground v.1.15,2013-11-24 15:20:00,
2013-11-24 10:25:00,18.8,11.6,30.75,WNW,292,3.0,8.0,73,0.00,,,0.00,Wunderground v.1.15,2013-11-24 15:25:00,
2013-11-24 10:30:00,19.1,11.9,30.75,WNW,302,3.0,3.0,73,0.00,,,0.00,Wunderground v.1.15,2013-11-24 15:30:00,
2013-11-24 10:35:00,19.4,11.8,30.75,NW,323,3.0,8.0,72,0.00,,,0.00,Wunderground v.1.15,2013-11-24 15:35:00,
2013-11-24 10:40:00,19.6,12.0,30.75,NW,307,3.0,8.0,72,0.00,,,0.00,Wunderground v.1.15,2013-11-24 15:40:00,
2013-11-24 10:50:00,20.3,12.7,30.74,WNW,294,3.0,8.0,72,0.00,,,0.00,Wunderground v.1.15,2013-11-24 15:50:00,
2013-11-24 10:55:00,20.5,12.6,30.74,WNW,295,3.0,8.0,71,0.00,,,0.00,Wunderground v.1.15,2013-11-24 15:55:00,
2013-11-24 11:00:00,21.0,13.1,30.74,WNW,288,3.0,8.0,71,0.00,,,0.00,Wunderground v.1.15,2013-11-24 16:00:00,
2013-11-24 11:05:00,21.3,13.0,30.75,West,274,3.0,8.0,70,0.00,,,0.00,Wunderground v.1.15,2013-11-24 16:05:00,
2013-11-24 11:10:00,21.5,12.9,30.75,West,262,2.0,8.0,69,0.00,,,0.00,Wunderground v.1.15,2013-11-24 16:10:00,
2013-11-24 11:20:00,21.8,12.9,30.75,West,263,3.0,3.0,68,0.00,,,0.00,Wunderground v.1.15,2013-11-24 16:20:00,
2013-11-24 11:25:00,22.0,13.0,30.75,NNW,333,3.0,5.0,68,0.00,,,0.00,Wunderground v.1.15,2013-11-24 16:25:00,
2013-11-24 11:35:00,22.2,12.9,30.75,WNW,283,3.0,8.0,67,0.00,,,0.00,Wunderground v.1.15,2013-11-24 16:35:00,
2013-11-24 11:40:00,22.4,12.8,30.74,SW,219,4.0,8.0,66,0.00,,,0.00,Wunderground v.1.15,2013-11-24 16:40:00,
2013-11-24 11:45:00,22.4,12.4,30.74,NW,314,3.0,8.0,65,0.00,,,0.00,Wunderground v.1.15,2013-11-24 16:45:00,
2013-11-24 11:50:00,22.6,12.6,30.73,WNW,294,3.0,3.0,65,0.00,,,0.00,Wunderground v.1.15,2013-11-24 16:50:00,
2013-11-24 12:00:00,23.0,12.6,30.73,WNW,285,5.0,8.0,64,0.00,,,0.00,Wunderground v.1.15,2013-11-24 17:00:00,
2013-11-24 12:05:00,22.9,11.8,30.72,West,274,5.0,8.0,62,0.00,,,0.00,Wunderground v.1.15,2013-11-24 17:05:00,
2013-11-24 12:10:00,23.1,12.4,30.72,West,259,4.0,4.0,63,0.00,,,0.00,Wunderground v.1.15,2013-11-24 17:10:00,
2013-11-24 12:15:00,23.3,11.1,30.72,SSW,211,3.0,8.0,59,0.00,,,0.00,Wunderground v.1.15,2013-11-24 17:15:00,
2013-11-24 12:20:00,23.2,11.4,30.71,WNW,292,3.0,8.0,60,0.00,,,0.00,Wunderground v.1.15,2013-11-24 17:20:00,
2013-11-24 12:30:00,23.4,11.5,30.70,NW,313,5.0,8.0,60,0.00,,,0.00,Wunderground v.1.15,2013-11-24 17:30:00,
2013-11-24 12:40:00,24.2,11.9,30.70,SW,231,4.0,9.0,59,0.00,,,0.00,Wunderground v.1.15,2013-11-24 17:40:00,
2013-11-24 12:45:00,23.9,12.4,30.69,SSE,167,4.0,9.0,61,0.00,,,0.00,Wunderground v.1.15,2013-11-24 17:45:00,
2013-11-24 12:50:00,24.1,12.2,30.69,WSW,244,4.0,4.0,60,0.00,,,0.00,Wunderground v.1.15,2013-11-24 17:50:00,
2013-11-24 12:55:00,24.4,11.3,30.69,SW,227,4.0,8.0,57,0.00,,,0.00,Wunderground v.1.15,2013-11-24 17:55:00,
2013-11-24 13:05:00,24.0,10.6,30.68,WSW,254,4.0,8.0,56,0.00,,,0.00,Wunderground v.1.15,2013-11-24 18:05:00,
2013-11-24 13:10:00,24.1,11.0,30.68,WNW,283,4.0,8.0,57,0.00,,,0.00,Wunderground v.1.15,2013-11-24 18:10:00,
2013-11-24 13:15:00,24.3,11.2,30.68,SW,231,4.0,8.0,57,0.00,,,0.00,Wunderground v.1.15,2013-11-24 18:15:00,
2013-11-24 13:25:00,24.4,10.5,30.67,WNW,302,4.0,4.0,55,0.00,,,0.00,Wunderground v.1.15,2013-11-24 18:25:00,
2013-11-24 13:30:00,24.6,11.1,30.67,NW,324,4.0,8.0,56,0.00,,,0.00,Wunderground v.1.15,2013-11-24 18:30:00,
2013-11-24 13:35:00,24.6,11.1,30.67,NNW,328,4.0,8.0,56,0.00,,,0.00,Wunderground v.1.15,2013-11-24 18:35:00,
2013-11-24 13:45:00,24.6,10.3,30.66,West,265,4.0,6.0,54,0.00,,,0.00,Wunderground v.1.15,2013-11-24 18:45:00,
2013-11-24 13:50:00,24.8,10.1,30.66,West,259,3.0,8.0,53,0.00,,,0.00,Wunderground v.1.15,2013-11-24 18:50:00,
2013-11-24 13:55:00,24.8,10.1,30.66,NNW,332,4.0,8.0,53,0.00,,,0.00,Wunderground v.1.15,2013-11-24 18:55:00,
2013-11-24 14:00:00,25.2,10.9,30.65,SW,234,4.0,8.0,54,0.00,,,0.00,Wunderground v.1.15,2013-11-24 19:00:00,
2013-11-24 14:05:00,25.2,10.0,30.65,NNW,330,3.0,8.0,52,0.00,,,0.00,Wunderground v.1.15,2013-11-24 19:05:00,
2013-11-24 14:10:00,25.4,10.2,30.65,West,259,3.0,8.0,52,0.00,,,0.00,Wunderground v.1.15,2013-11-24 19:10:00,
2013-11-24 14:15:00,25.8,10.6,30.65,NNW,341,3.0,8.0,52,0.00,,,0.00,Wunderground v.1.15,2013-11-24 19:15:00,
2013-11-24 14:20:00,25.8,10.6,30.64,West,269,3.0,3.0,52,0.00,,,0.00,Wunderground v.1.15,2013-11-24 19:20:00,
2013-11-24 14:25:00,25.8,10.6,30.64,West,265,4.0,4.0,52,0.00,,,0.00,Wunderground v.1.15,2013-11-24 19:25:00,
2013-11-24 14:35:00,25.6,9.1,30.63,WNW,292,3.0,8.0,49,0.00,,,0.00,Wunderground v.1.15,2013-11-24 19:35:00,
2013-11-24 14:40:00,26.0,9.4,30.64,West,271,3.0,8.0,49,0.00,,,0.00,Wunderground v.1.15,2013-11-24 19:40:00,
2013-11-24 14:50:00,26.3,9.2,30.63,North,355,4.0,4.0,48,0.00,,,0.00,Wunderground v.1.15,2013-11-24 19:50:00,
2013-11-24 14:55:00,26.5,9.4,30.63,NNW,343,3.0,5.0,48,0.00,,,0.00,Wunderground v.1.15,2013-11-24 19:55:00,
2013-11-24 15:00:00,26.3,8.8,30.62,West,270,3.0,8.0,47,0.00,,,0.00,Wunderground v.1.15,2013-11-24 20:00:00,
2013-11-24 15:05:00,26.3,8.3,30.62,West,273,3.0,8.0,46,0.00,,,0.00,Wunderground v.1.15,2013-11-24 20:05:00,
2013-11-24 15:10:00,26.4,7.4,30.62,West,275,2.0,2.0,44,0.00,,,0.00,Wunderground v.1.15,2013-11-24 20:10:00,
2013-11-24 15:15:00,26.4,7.4,30.61,NW,308,3.0,4.0,44,0.00,,,0.00,Wunderground v.1.15,2013-11-24 20:15:00,
2013-11-24 15:20:00,26.0,6.5,30.61,NW,310,3.0,8.0,43,0.00,,,0.00,Wunderground v.1.15,2013-11-24 20:20:00,
2013-11-24 15:25:00,26.2,5.7,30.61,West,276,3.0,8.0,41,0.00,,,0.00,Wunderground v.1.15,2013-11-24 20:25:00,
2013-11-24 15:30:00,26.4,5.8,30.61,West,279,2.0,8.0,41,0.00,,,0.00,Wunderground v.1.15,2013-11-24 20:30:00,
2013-11-24 15:40:00,26.5,7.5,30.61,NW,309,3.0,3.0,44,0.00,,,0.00,Wunderground v.1.15,2013-11-24 20:40:00,
2013-11-24 15:45:00,26.6,7.1,30.61,SW,227,2.0,4.0,43,0.00,,,0.00,Wunderground v.1.15,2013-11-24 20:45:00,
2013-11-24 15:55:00,26.6,6.6,30.61,WSW,240,1.0,8.0,42,0.00,,,0.00,Wunderground v.1.15,2013-11-24 20:55:00,
2013-11-24 16:00:00,26.7,6.6,30.61,WNW,288,2.0,2.0,42,0.00,,,0.00,Wunderground v.1.15,2013-11-24 21:00:00,
2013-11-24 16:05:00,27.1,7.0,30.61,West,264,2.0,8.0,42,0.00,,,0.00,Wunderground v.1.15,2013-11-24 21:05:00,
2013-11-24 16:10:00,27.1,6.5,30.61,NW,309,2.0,8.0,41,0.00,,,0.00,Wunderground v.1.15,2013-11-24 21:10:00,
2013-11-24 16:20:00,26.5,5.4,30.61,West,263,2.0,8.0,40,0.00,,,0.00,Wunderground v.1.15,2013-11-24 21:20:00,
2013-11-24 16:30:00,26.7,6.1,30.61,West,263,1.0,8.0,41,0.00,,,0.00,Wunderground v.1.15,2013-11-24 21:30:00,
2013-11-24 16:35:00,26.6,4.9,30.61,West,262,1.0,8.0,39,0.00,,,0.00,Wunderground v.1.15,2013-11-24 21:35:00,
2013-11-24 16:40:00,26.1,4.5,30.61,WSW,248,2.0,2.0,39,0.00,,,0.00,Wunderground v.1.15,2013-11-24 21:40:00,
2013-11-24 16:45:00,25.7,4.7,30.61,WSW,248,1.0,8.0,40,0.00,,,0.00,Wunderground v.1.15,2013-11-24 21:45:00,
2013-11-24 16:50:00,25.4,4.4,30.61,WSW,248,1.0,8.0,40,0.00,,,0.00,Wunderground v.1.15,2013-11-24 21:50:00,
2013-11-24 16:55:00,25.2,4.8,30.61,WSW,248,1.0,8.0,41,0.00,,,0.00,Wunderground v.1.15,2013-11-24 21:55:00,
2013-11-24 17:00:00,25.0,4.6,30.60,WSW,248,0.0,8.0,41,0.00,,,0.00,Wunderground v.1.15,2013-11-24 22:00:00,
2013-11-24 17:10:00,24.7,5.3,30.59,WSW,248,1.0,8.0,43,0.00,,,0.00,Wunderground v.1.15,2013-11-24 22:10:00,
2013-11-24 17:15:00,24.6,5.3,30.59,WSW,248,1.0,8.0,43,0.00,,,0.00,Wunderground v.1.15,2013-11-24 22:15:00,
2013-11-24 17:20:00,24.5,5.2,30.59,WSW,248,0.0,8.0,43,0.00,,,0.00,Wunderground v.1.15,2013-11-24 22:20:00,
2013-11-24 17:25:00,24.4,5.6,30.59,WSW,248,1.0,8.0,44,0.00,,,0.00,Wunderground v.1.15,2013-11-24 22:25:00,
2013-11-24 17:30:00,24.2,5.4,30.59,WSW,248,0.0,8.0,44,0.00,,,0.00,Wunderground v.1.15,2013-11-24 22:30:00,
2013-11-24 17:40:00,23.8,6.0,30.59,WSW,248,0.0,8.0,46,0.00,,,0.00,Wunderground v.1.15,2013-11-24 22:40:00,
2013-11-24 17:45:00,23.6,6.3,30.59,WSW,248,0.0,8.0,47,0.00,,,0.00,Wunderground v.1.15,2013-11-24 22:45:00,
2013-11-24 17:50:00,23.4,7.5,30.59,WSW,248,0.0,8.0,50,0.00,,,0.00,Wunderground v.1.15,2013-11-24 22:50:00,
2013-11-24 17:55:00,23.0,7.5,30.58,WSW,248,0.0,8.0,51,0.00,,,0.00,Wunderground v.1.15,2013-11-24 22:55:00,
2013-11-24 18:05:00,22.4,7.4,30.58,WSW,248,0.0,8.0,52,0.00,,,0.00,Wunderground v.1.15,2013-11-24 23:05:00,
2013-11-24 18:10:00,22.0,6.6,30.58,WSW,248,0.0,8.0,51,0.00,,,0.00,Wunderground v.1.15,2013-11-24 23:10:00,
2013-11-24 18:15:00,21.6,6.7,30.58,WSW,248,0.0,8.0,52,0.00,,,0.00,Wunderground v.1.15,2013-11-24 23:15:00,
2013-11-24 18:25:00,21.0,6.9,30.58,WSW,248,0.0,8.0,54,0.00,,,0.00,Wunderground v.1.15,2013-11-24 23:25:00,
2013-11-24 18:30:00,20.8,7.6,30.58,WSW,248,0.0,8.0,56,0.00,,,0.00,Wunderground v.1.15,2013-11-24 23:30:00,
2013-11-24 18:35:00,20.6,8.5,30.58,WSW,248,0.0,8.0,59,0.00,,,0.00,Wunderground v.1.15,2013-11-24 23:35:00,
2013-11-24 18:45:00,20.1,8.1,30.58,WSW,248,0.0,8.0,59,0.00,,,0.00,Wunderground v.1.15,2013-11-24 23:45:00,
2013-11-24 18:50:00,19.9,7.9,30.58,WSW,248,0.0,8.0,59,0.00,,,0.00,Wunderground v.1.15,2013-11-24 23:50:00,
2013-11-24 18:55:00,19.8,8.9,30.58,WSW,248,0.0,8.0,62,0.00,,,0.00,Wunderground v.1.15,2013-11-24 23:55:00,
2013-11-24 19:00:00,19.7,8.8,30.58,WSW,248,0.0,8.0,62,0.00,,,0.00,Wunderground v.1.15,2013-11-25 00:00:00,
2013-11-24 19:10:00,19.3,7.3,30.58,WSW,248,0.0,8.0,59,0.00,,,0.00,Wunderground v.1.15,2013-11-25 00:10:00,
2013-11-24 19:20:00,19.1,9.3,30.58,WSW,248,0.0,8.0,65,0.00,,,0.00,Wunderground v.1.15,2013-11-25 00:20:00,
2013-11-24 19:25:00,19.0,8.5,30.58,WSW,248,0.0,8.0,63,0.00,,,0.00,Wunderground v.1.15,2013-11-25 00:25:00,
2013-11-24 19:30:00,18.9,10.1,30.58,WSW,248,0.0,8.0,68,0.00,,,0.00,Wunderground v.1.15,2013-11-25 00:30:00,
2013-11-24 19:35:00,19.0,11.5,30.58,WSW,248,0.0,8.0,72,0.00,,,0.00,Wunderground v.1.15,2013-11-25 00:35:00,
2013-11-24 19:40:00,18.9,12.3,30.58,WSW,248,0.0,8.0,75,0.00,,,0.00,Wunderground v.1.15,2013-11-25 00:40:00,
2013-11-24 19:45:00,18.8,12.5,30.58,WSW,248,0.0,8.0,76,0.00,,,0.00,Wunderground v.1.15,2013-11-25 00:45:00,
2013-11-24 19:50:00,18.7,12.1,30.58,WSW,248,0.0,8.0,75,0.00,,,0.00,Wunderground v.1.15,2013-11-25 00:50:00,
2013-11-24 19:55:00,18.7,12.1,30.58,WSW,248,0.0,8.0,75,0.00,,,0.00,Wunderground v.1.15,2013-11-25 00:55:00,
2013-11-24 20:00:00,18.6,11.7,30.57,WSW,248,0.0,8.0,74,0.00,,,0.00,Wunderground v.1.15,2013-11-25 01:00:00,
2013-11-24 20:05:00,18.5,11.6,30.57,WSW,248,0.0,8.0,74,0.00,,,0.00,Wunderground v.1.15,2013-11-25 01:05:00,
2013-11-24 20:15:00,18.2,11.9,30.56,WSW,248,0.0,8.0,76,0.00,,,0.00,Wunderground v.1.15,2013-11-25 01:15:00,
2013-11-24 20:20:00,18.1,12.1,30.56,WSW,248,0.0,8.0,77,0.00,,,0.00,Wunderground v.1.15,2013-11-25 01:20:00,
2013-11-24 20:25:00,17.9,11.6,30.56,WSW,248,0.0,8.0,76,0.00,,,0.00,Wunderground v.1.15,2013-11-25 01:25:00,
2013-11-24 20:30:00,17.7,10.8,30.56,WSW,248,0.0,8.0,74,0.00,,,0.00,Wunderground v.1.15,2013-11-25 01:30:00,
2013-11-24 20:35:00,17.4,9.9,30.56,WSW,248,0.0,8.0,72,0.00,,,0.00,Wunderground v.1.15,2013-11-25 01:35:00,
2013-11-24 20:40:00,17.3,10.1,30.56,WSW,248,0.0,8.0,73,0.00,,,0.00,Wunderground v.1.15,2013-11-25 01:40:00,
2013-11-24 20:45:00,17.2,9.7,30.56,WSW,248,0.0,8.0,72,0.00,,,0.00,Wunderground v.1.15,2013-11-25 01:45:00,
2013-11-24 20:50:00,17.2,9.7,30.55,WSW,248,0.0,8.0,72,0.00,,,0.00,Wunderground v.1.15,2013-11-25 01:50:00,
2013-11-24 20:55:00,17.2,9.7,30.56,WSW,248,0.0,8.0,72,0.00,,,0.00,Wunderground v.1.15,2013-11-25 01:55:00,
2013-11-24 21:00:00,17.4,11.1,30.55,WSW,248,0.0,8.0,76,0.00,,,0.00,Wunderground v.1.15,2013-11-25 02:00:00,
2013-11-24 21:10:00,17.4,11.4,30.55,WSW,248,0.0,8.0,77,0.00,,,0.00,Wunderground v.1.15,2013-11-25 02:10:00,
2013-11-24 21:15:00,17.5,11.8,30.55,WSW,248,0.0,8.0,78,0.00,,,0.00,Wunderground v.1.15,2013-11-25 02:15:00,
2013-11-24 21:20:00,17.4,11.4,30.55,WSW,248,0.0,8.0,77,0.00,,,0.00,Wunderground v.1.15,2013-11-25 02:20:00,
2013-11-24 21:25:00,17.3,11.3,30.54,WSW,248,0.0,8.0,77,0.00,,,0.00,Wunderground v.1.15,2013-11-25 02:25:00,
2013-11-24 21:30:00,17.2,10.9,30.54,WSW,248,0.0,8.0,76,0.00,,,0.00,Wunderground v.1.15,2013-11-25 02:30:00,
2013-11-24 21:35:00,17.2,10.6,30.54,WSW,248,0.0,8.0,75,0.00,,,0.00,Wunderground v.1.15,2013-11-25 02:35:00,
2013-11-24 21:40:00,17.2,10.3,30.54,WSW,248,0.0,8.0,74,0.00,,,0.00,Wunderground v.1.15,2013-11-25 02:40:00,
2013-11-24 21:45:00,17.2,10.3,30.54,WSW,248,0.0,8.0,74,0.00,,,0.00,Wunderground v.1.15,2013-11-25 02:45:00,
2013-11-24 21:50:00,17.3,10.4,30.54,WSW,248,0.0,8.0,74,0.00,,,0.00,Wunderground v.1.15,2013-11-25 02:50:00,
2013-11-24 21:55:00,17.4,10.5,30.54,WSW,248,0.0,8.0,74,0.00,,,0.00,Wunderground v.1.15,2013-11-25 02:55:00,
2013-11-24 22:00:00,17.6,10.7,30.54,WSW,248,0.0,8.0,74,0.00,,,0.00,Wunderground v.1.15,2013-11-25 03:00:00,
2013-11-24 22:10:00,17.7,11.1,30.54,WSW,248,0.0,8.0,75,0.00,,,0.00,Wunderground v.1.15,2013-11-25 03:10:00,
2013-11-24 22:15:00,17.8,11.5,30.53,WSW,248,0.0,8.0,76,0.00,,,0.00,Wunderground v.1.15,2013-11-25 03:15:00,
2013-11-24 22:20:00,17.7,11.7,30.53,WSW,248,0.0,8.0,77,0.00,,,0.00,Wunderground v.1.15,2013-11-25 03:20:00,
2013-11-24 22:30:00,17.2,11.2,30.53,WSW,248,0.0,8.0,77,0.00,,,0.00,Wunderground v.1.15,2013-11-25 03:30:00,
2013-11-24 22:35:00,17.0,11.3,30.52,WSW,248,0.0,8.0,78,0.00,,,0.00,Wunderground v.1.15,2013-11-25 03:35:00,
2013-11-24 22:45:00,16.7,11.3,30.52,WSW,248,0.0,8.0,79,0.00,,,0.00,Wunderground v.1.15,2013-11-25 03:45:00,
2013-11-24 22:50:00,16.6,11.5,30.52,WSW,248,0.0,8.0,80,0.00,,,0.00,Wunderground v.1.15,2013-11-25 03:50:00,
2013-11-24 22:55:00,16.6,11.8,30.52,WSW,248,0.0,8.0,81,0.00,,,0.00,Wunderground v.1.15,2013-11-25 03:55:00,
2013-11-24 23:00:00,16.6,11.8,30.52,WSW,248,0.0,8.0,81,0.00,,,0.00,Wunderground v.1.15,2013-11-25 04:00:00,
2013-11-24 23:05:00,16.6,11.8,30.52,WSW,248,0.0,8.0,81,0.00,,,0.00,Wunderground v.1.15,2013-11-25 04:05:00,
2013-11-24 23:10:00,16.6,11.8,30.52,WSW,248,0.0,8.0,81,0.00,,,0.00,Wunderground v.1.15,2013-11-25 04:10:00,
2013-11-24 23:15:00,16.4,11.6,30.52,WSW,248,0.0,8.0,81,0.00,,,0.00,Wunderground v.1.15,2013-11-25 04:15:00,
2013-11-24 23:20:00,16.4,11.6,30.52,WSW,248,0.0,8.0,81,0.00,,,0.00,Wunderground v.1.15,2013-11-25 04:20:00,
2013-11-24 23:25:00,16.3,11.5,30.51,WSW,248,0.0,8.0,81,0.00,,,0.00,Wunderground v.1.15,2013-11-25 04:25:00,
2013-11-24 23:30:00,16.2,11.7,30.51,WSW,248,0.0,8.0,82,0.00,,,0.00,Wunderground v.1.15,2013-11-25 04:30:00,
2013-11-24 23:40:00,16.0,11.7,30.51,WSW,248,0.0,8.0,83,0.00,,,0.00,Wunderground v.1.15,2013-11-25 04:40:00,
2013-11-24 23:50:00,15.7,11.5,30.51,WSW,248,0.0,8.0,83,0.00,,,0.00,Wunderground v.1.15,2013-11-25 04:50:00,
2013-11-24 23:55:00,15.5,11.3,30.51,WSW,248,0.0,8.0,83,0.00,,,0.00,Wunderground v.1.15,2013-11-25 04:55:00,